Shelby, NC

6:27 AM EDT on June 24, 2017 (GMT -0400)
Shelby Municipal

Weather History for KEHO - October, 2012

Change the Weather History Date:

Tuesday, October 30, 2012

  Actual Average (KHKY) Record (KHKY)
Temperature  
Mean Temperature 44 °F -  
Max Temperature 46 °F 64 °F 84 °F (1961)
Min Temperature 41 °F 43 °F 25 °F (1952)
Degree Days  
Heating Degree Days 22    
Moisture  
Dew Point 30 °F    
Average Humidity 57    
Maximum Humidity 66    
Minimum Humidity 50    
Precipitation  
Precipitation 0.00 in - - ()
Sea Level Pressure  
Sea Level Pressure 29.55 in    
Wind  
Wind Speed 12 mph (West)    
Max Wind Speed 23 mph    
Max Gust Speed 31 mph    
Visibility 10 miles    
Events      
Averages and records for this station are not official NWS values.
T = Trace of Precipitation, MM = Missing Value Source: NWS Daily Summary

Daily Weather History Graph

Daily Weather History Graph

Search for Another Location

Airport or City:

Trip Planner

Search our weather history database for the weather conditions in past years. The results will help you decide how hot, cold, wet, or windy it might be!

Date:

Astronomy

Oct. 30, 2012 Rise Set
Actual Time 7:46 AM EDT 6:33 PM EDT
Civil Twilight 7:20 AM EDT 6:59 PM EDT
Nautical Twilight 6:50 AM EDT 7:29 PM EDT
Astronomical Twilight 6:20 AM EDT 7:58 PM EDT
Moon 7:05 PM EDT (10/30) 8:29 AM EDT (10/30)
Length of Visible Light 11h 39m
Length of Day
10h 46m
Full, 99% of the Moon is Illuminated
Oct 30
Full
Nov 6
Last Quarter
Nov 13
New
Nov 20
First Quarter
Nov 28
Full

Hourly Weather History & Observations

Time (EDT) Temp. Windchill Dew Point Humidity Pressure Visibility Wind Dir Wind Speed Gust Speed Precip Events Conditions
12:15 AM 42.8 °F 37.5 °F 30.2 °F 61% 29.54 in 10.0 mi West 9.2 mph - N/A   Overcast
12:35 AM 42.8 °F 38.6 °F 30.2 °F 61% 29.54 in 10.0 mi West 6.9 mph - N/A   Overcast
12:55 AM 42.8 °F 37.0 °F 30.2 °F 61% 29.53 in 10.0 mi West 10.4 mph - N/A   Overcast
1:15 AM 42.8 °F 36.6 °F 30.2 °F 61% 29.52 in 10.0 mi West 11.5 mph 17.3 mph N/A   Overcast
1:35 AM 42.8 °F 37.0 °F 30.2 °F 61% 29.52 in 10.0 mi West 10.4 mph 16.1 mph N/A   Mostly Cloudy
1:55 AM 42.8 °F 37.0 °F 30.2 °F 61% 29.50 in 10.0 mi West 10.4 mph - N/A   Mostly Cloudy
2:15 AM 42.8 °F 36.2 °F 28.4 °F 57% 29.50 in 10.0 mi West 12.7 mph 17.3 mph N/A   Overcast
2:35 AM 42.8 °F 36.6 °F 28.4 °F 57% 29.50 in 10.0 mi West 11.5 mph - N/A   Overcast
2:55 AM 42.8 °F 35.8 °F 28.4 °F 57% 29.49 in 10.0 mi West 13.8 mph 18.4 mph N/A   Overcast
3:55 AM 41.0 °F 33.1 °F 28.4 °F 61% 29.47 in 10.0 mi West 15.0 mph 19.6 mph N/A   Overcast
4:15 AM 41.0 °F 34.7 °F 28.4 °F 61% 29.47 in 10.0 mi West 10.4 mph 20.7 mph N/A   Overcast
4:55 AM 41.0 °F 33.9 °F 28.4 °F 61% 29.47 in 10.0 mi West 12.7 mph 20.7 mph N/A   Overcast
5:15 AM 42.8 °F 35.8 °F 28.4 °F 57% 29.47 in 10.0 mi West 13.8 mph 21.9 mph N/A   Mostly Cloudy
5:35 AM 42.8 °F 36.6 °F 28.4 °F 57% 29.47 in 10.0 mi West 11.5 mph 21.9 mph N/A   Mostly Cloudy
5:55 AM 42.8 °F 35.1 °F 28.4 °F 57% 29.47 in 10.0 mi West 16.1 mph 21.9 mph N/A   Mostly Cloudy
6:15 AM 42.8 °F 37.0 °F 28.4 °F 57% 29.47 in 10.0 mi West 10.4 mph 20.7 mph N/A   Overcast
6:35 AM 42.8 °F 36.2 °F 28.4 °F 57% 29.47 in 10.0 mi West 12.7 mph 21.9 mph N/A   Overcast
6:55 AM 42.8 °F 36.6 °F 28.4 °F 57% 29.48 in 10.0 mi West 11.5 mph - N/A   Mostly Cloudy
7:15 AM 42.8 °F 36.6 °F 30.2 °F 61% 29.48 in 10.0 mi WSW 11.5 mph 18.4 mph N/A   Overcast
7:35 AM 42.8 °F 36.6 °F 30.2 °F 61% 29.48 in 10.0 mi WSW 11.5 mph 18.4 mph N/A   Overcast
8:15 AM 42.8 °F 36.6 °F 30.2 °F 61% 29.49 in 10.0 mi WSW 11.5 mph 17.3 mph N/A   Overcast
8:35 AM 42.8 °F 36.6 °F 30.2 °F 61% 29.49 in 10.0 mi West 11.5 mph - N/A   Mostly Cloudy
8:55 AM 42.8 °F 36.6 °F 30.2 °F 61% 29.49 in 10.0 mi West 11.5 mph - N/A   Scattered Clouds
9:35 AM 42.8 °F 37.5 °F 30.2 °F 61% 29.50 in 10.0 mi West 9.2 mph - N/A   Mostly Cloudy
9:55 AM 44.6 °F 39.7 °F 30.2 °F 57% 29.50 in 10.0 mi West 9.2 mph - N/A   Mostly Cloudy
10:15 AM 44.6 °F 38.8 °F 30.2 °F 57% 29.50 in 10.0 mi WSW 11.5 mph - N/A   Mostly Cloudy
10:35 AM 44.6 °F 39.7 °F 30.2 °F 57% 29.50 in 10.0 mi WSW 9.2 mph 18.4 mph N/A   Overcast
10:55 AM 46.4 °F 40.7 °F 30.2 °F 53% 29.50 in 10.0 mi West 12.7 mph 16.1 mph N/A   Overcast
11:15 AM 46.4 °F 40.4 °F 30.2 °F 53% 29.50 in 10.0 mi West 13.8 mph 23.0 mph N/A   Mostly Cloudy
11:35 AM 46.4 °F 40.4 °F 28.4 °F 50% 29.50 in 10.0 mi West 13.8 mph 20.7 mph N/A   Scattered Clouds
11:55 AM 46.4 °F 40.7 °F 28.4 °F 50% 29.51 in 10.0 mi West 12.7 mph 18.4 mph N/A   Clear
12:15 PM 46.4 °F 40.7 °F 30.2 °F 53% 29.51 in 10.0 mi West 12.7 mph 21.9 mph N/A   Clear
12:35 PM 46.4 °F 38.7 °F 28.4 °F 50% 29.52 in 10.0 mi West 20.7 mph 25.3 mph N/A   Clear
12:55 PM 46.4 °F 39.8 °F 28.4 °F 50% 29.52 in 10.0 mi West 16.1 mph 24.2 mph N/A   Clear
1:15 PM 46.4 °F 40.1 °F 28.4 °F 50% 29.52 in 10.0 mi West 15.0 mph 25.3 mph N/A   Scattered Clouds
1:35 PM 46.4 °F 39.5 °F 30.2 °F 53% 29.53 in 10.0 mi West 17.3 mph 23.0 mph N/A   Scattered Clouds
1:55 PM 46.4 °F 40.1 °F 30.2 °F 53% 29.53 in 10.0 mi West 15.0 mph 23.0 mph N/A   Mostly Cloudy
2:15 PM 46.4 °F 39.5 °F 30.2 °F 53% 29.53 in 10.0 mi West 17.3 mph 24.2 mph N/A   Mostly Cloudy
2:35 PM 46.4 °F 39.8 °F 30.2 °F 53% 29.53 in 10.0 mi West 16.1 mph 25.3 mph N/A   Mostly Cloudy
2:55 PM 46.4 °F 40.1 °F 30.2 °F 53% 29.54 in 10.0 mi West 15.0 mph 26.5 mph N/A   Mostly Cloudy
3:15 PM 44.6 °F 35.9 °F 28.4 °F 53% 29.54 in 10.0 mi West 23.0 mph 29.9 mph N/A   Mostly Cloudy
3:35 PM 44.6 °F 37.2 °F 30.2 °F 57% 29.54 in 10.0 mi West 17.3 mph 25.3 mph N/A   Mostly Cloudy
3:55 PM 44.6 °F 37.4 °F 28.4 °F 53% 29.55 in 10.0 mi West 16.1 mph 31.1 mph N/A   Mostly Cloudy
4:15 PM 44.6 °F 37.4 °F 28.4 °F 53% 29.56 in 10.0 mi West 16.1 mph 25.3 mph N/A   Overcast
4:35 PM 44.6 °F 37.2 °F 28.4 °F 53% 29.57 in 10.0 mi West 17.3 mph 26.5 mph N/A   Overcast
4:55 PM 44.6 °F 38.1 °F 28.4 °F 53% 29.57 in 10.0 mi West 13.8 mph 24.2 mph N/A   Overcast
5:15 PM 44.6 °F 37.4 °F 28.4 °F 53% 29.58 in 10.0 mi West 16.1 mph 23.0 mph N/A   Overcast
5:35 PM 44.6 °F 37.4 °F 30.2 °F 57% 29.59 in 10.0 mi West 16.1 mph 24.2 mph N/A   Overcast
5:55 PM 44.6 °F 37.2 °F 30.2 °F 57% 29.59 in 10.0 mi West 17.3 mph 23.0 mph N/A   Overcast
6:15 PM 44.6 °F 36.9 °F 30.2 °F 57% 29.60 in 10.0 mi West 18.4 mph 26.5 mph N/A   Overcast
6:35 PM 44.6 °F 37.2 °F 30.2 °F 57% 29.61 in 10.0 mi West 17.3 mph 23.0 mph N/A   Overcast
6:55 PM 44.6 °F 38.4 °F 30.2 °F 57% 29.62 in 10.0 mi West 12.7 mph 21.9 mph N/A   Overcast
7:15 PM 44.6 °F 39.2 °F 30.2 °F 57% 29.62 in 10.0 mi West 10.4 mph 16.1 mph N/A   Overcast
7:35 PM 44.6 °F 38.8 °F 30.2 °F 57% 29.64 in 10.0 mi West 11.5 mph 17.3 mph N/A   Overcast
7:55 PM 44.6 °F 38.4 °F 30.2 °F 57% 29.64 in 10.0 mi West 12.7 mph 18.4 mph N/A   Mostly Cloudy
8:15 PM 42.8 °F 36.6 °F 30.2 °F 61% 29.64 in 10.0 mi West 11.5 mph 18.4 mph N/A   Overcast
8:35 PM 42.8 °F 36.6 °F 30.2 °F 61% 29.64 in 10.0 mi West 11.5 mph 23.0 mph N/A   Mostly Cloudy
8:55 PM 42.8 °F 37.0 °F 30.2 °F 61% 29.65 in 10.0 mi West 10.4 mph 20.7 mph N/A   Mostly Cloudy
9:15 PM 42.8 °F 36.6 °F 30.2 °F 61% 29.66 in 10.0 mi West 11.5 mph 20.7 mph N/A   Overcast
9:35 PM 42.8 °F 37.0 °F 32.0 °F 66% 29.66 in 10.0 mi West 10.4 mph - N/A   Mostly Cloudy
9:55 PM 42.8 °F 38.0 °F 30.2 °F 61% 29.67 in 10.0 mi West 8.1 mph 19.6 mph N/A   Overcast
10:15 PM 44.6 °F 39.7 °F 32.0 °F 61% 29.66 in 10.0 mi West 9.2 mph 18.4 mph N/A   Overcast
10:35 PM 42.8 °F 38.6 °F 30.2 °F 61% 29.67 in 10.0 mi West 6.9 mph - N/A   Scattered Clouds
10:55 PM 42.8 °F 39.3 °F 32.0 °F 66% 29.67 in 10.0 mi West 5.8 mph - N/A   Clear
11:15 PM 44.6 °F 38.1 °F 30.2 °F 57% 29.66 in 10.0 mi West 13.8 mph 18.4 mph N/A   Clear
11:35 PM 44.6 °F 38.8 °F 32.0 °F 61% 29.66 in 10.0 mi West 11.5 mph - N/A   Clear
11:55 PM 44.6 °F 39.7 °F 32.0 °F 61% 29.66 in 10.0 mi West 9.2 mph - N/A   Clear